Location: *
(37.2556°N, 8.2883°W)
Time: 11:56:54
(UTC+00:00)

Daily predictions for brighter satellites

Satellite Brightness Start Highest point End
(mag) Time Altitude Azimuth Time Altitude Azimuth Time Altitude Azimuth
NOSS 3-4 (A) 4.4 18:44:24 10° NNW 18:51:06 42° NE 18:58:20 10° ESE
NOSS 3-4 (C) 4.4 18:44:31 10° NNW 18:51:12 42° NE 18:58:24 10° ESE
BREEZE-M DEB (TANK) 1.9 18:49:37 10° NW 18:51:51 86° SW 18:57:04 10° SE
Cosmos 2333 Rocket 2.3 18:46:15 10° NNW 18:51:55 58° ENE 18:57:32 10° SE
Meteor 2-15 4.5 18:46:59 10° S 18:53:05 74° E 18:59:13 10° NNE
Ariane Rocket 3.8 18:51:59 10° SE 18:56:25 32° ENE 19:00:52 10° N
Cosmos 2154 Rocket 4.4 18:51:19 10° N 18:57:10 42° ENE 19:03:00 10° SSE
NOSS 0 Rocket 4.5 18:52:10 10° N 18:57:58 39° ENE 19:03:44 10° SE
Cosmos 1536 Rocket 3.5 18:53:53 10° N 18:58:14 87° E 19:02:34 10° S
YAOGAN 1 2.5 18:57:12 10° SSE 19:01:29 73° ENE 19:05:49 10° N
Cosmos 389 Rocket 4.1 19:00:49 10° NE 19:02:57 15° ENE 19:05:05 10° ESE
Meteor 1-12 Rocket 4.3 18:58:05 10° S 19:03:49 88° ESE 19:09:30 10° N
GP-B 3.3 19:00:30 10° NNE 19:04:50 50° E 19:09:07 10° SSE
DMSP B5D1-3 4.5 19:02:28 10° NNE 19:07:33 66° ESE 19:12:36 10° S
USA 32 4.3 19:02:19 10° N 19:07:34 75° W 19:12:46 10° S
DELTA 2 R/B (1) 3.6 19:02:50 10° WSW 19:08:27 86° SSE 19:14:06 10° ENE
Cosmos 2056 Rocket 3.9 19:05:01 10° S 19:10:05 43° ESE 19:15:10 10° NNE
Cosmos 1544 3.0 19:07:02 10° S 19:10:37 87° W 19:14:14 10° N
Cosmos 407 Rocket 4.3 19:06:34 10° N 19:11:01 29° ENE 19:15:28 10° SE
Cosmos 2184 Rocket 4.1 19:05:33 10° N 19:11:51 88° W 19:18:10 10° S
ASTEX 1 3.9 19:14:05 10° NNE 19:18:32 34° E 19:22:59 10° SSE
Cosmos 1707 3.1 19:16:27 10° N 19:20:13 42° E 19:23:56 10° SSE
Cosmos 1624 Rocket 4.0 19:16:17 10° S 19:21:20 56° ESE 19:26:24 10° NNE
Cosmos 2219 Rocket 2.3 19:16:34 10° NNW 19:22:11 80° WSW 19:27:46 10° SSE
ISS -2.3 19:19:36 10° WSW 19:22:43 36° NW 19:25:49 10° NE
SL-16 R/B 3.8 19:20:30 10° NNE 19:23:56 16° NE 19:26:04 13° ENE
Cosmos 2084 Rocket 3.5 19:22:09 10° SSW 19:26:35 88° SE 19:31:05 10° NNE
Cosmos 1140 Rocket 4.4 19:22:36 10° N 19:26:59 27° ENE 19:29:46 17° ESE
IRS-1A Rocket 4.4 19:21:38 10° SSE 19:27:11 56° ENE 19:32:40 10° N
Nadezhda 1 Rocket 4.1 19:21:59 10° S 19:28:02 77° W 19:34:08 10° N
NOAA 11 4.1 19:24:55 10° SSE 19:30:22 71° ENE 19:35:50 10° N
Okean 1-7 Rocket 4.2 19:28:54 10° NNE 19:32:59 34° ENE 19:36:14 15° SE
ATLAS 2AS CENTAUR R/B 3.0 19:27:07 10° NW 19:34:40 78° WSW 19:41:31 10° SSE
Cosmos 2082 4.1 19:29:26 10° S 19:34:41 39° ESE 19:39:57 10° NE
USA 186 3.0 19:36:55 24° ENE 19:37:08 24° ENE 19:39:58 10° NNE
Cosmos 1295 Rocket 4.4 19:32:17 10° N 19:38:24 67° E 19:44:26 10° SSE
ARGOS 4.3 19:39:17 20° E 19:40:46 23° ENE 19:44:55 10° NNE
COSMOS 2428 3.6 19:37:10 10° NNW 19:42:39 51° WSW 19:48:07 10° S
Meteor 1-4 Rocket 2.9 19:40:21 10° N 19:43:37 37° ENE 19:44:22 33° ESE
Cosmos 1544 Rocket 4.1 19:40:53 10° SSE 19:44:56 35° E 19:49:00 10° NNE
Cosmos 1455 Rocket 3.3 19:40:50 10° SSE 19:45:01 45° E 19:49:16 10° NNE
CZ-2D R/B 3.8 19:41:42 10° S 19:45:26 60° W 19:49:13 10° NNW
CZ-4 R/B 4.1 19:44:03 10° SW 19:47:01 21° W 19:50:03 10° NW
PSLV R/B 3.6 19:44:28 10° W 19:47:02 41° N 19:47:44 32° NNE
SJ-6B 3.7 19:46:28 29° E 19:47:17 32° ENE 19:50:56 10° N
Cosmos 2227 Rocket 2.1 19:43:37 10° SSW 19:49:15 85° ESE 19:54:57 10° NNE
SPOT 3 Rocket 4.0 19:49:57 26° ESE 19:52:17 40° ENE 19:57:04 10° N
Cosmos 1766 4.2 19:54:23 29° ENE 19:54:23 29° ENE 19:56:59 10° NNE
BREEZE-M DEB (TANK) 4.0 19:52:44 10° W 19:54:34 22° SW 19:55:56 16° S
Cosmos 2219 4.2 19:49:43 10° SW 19:55:15 49° WNW 20:00:50 10° N
Lacrosse 5 2.8 19:54:22 10° S 19:57:56 28° SE 19:57:56 28° SE
Cosmos 2297 Rocket 2.4 19:53:48 10° SSW 19:59:26 74° WNW 20:05:07 10° NNE
Cosmos 1452 Rocket 3.7 19:59:15 10° S 20:04:14 47° ESE 20:09:15 10° NNE
Cosmos 676 Rocket 4.1 20:04:03 10° N 20:09:12 53° ENE 20:10:26 43° ESE
Lacrosse 5 rocket 3.1 20:06:11 10° W 20:09:17 26° NW 20:12:30 10° NNE
Cosmos 405 Rocket 3.4 20:05:46 10° SSW 20:09:21 52° W 20:12:59 10° N
Cosmos 1023 Rocket 4.3 20:08:12 10° NNW 20:13:21 76° ENE 20:15:12 40° SSE
MOS 1 4.4 20:08:03 10° S 20:13:44 77° WSW 20:19:27 10° NNW
GENESIS II 4.2 20:11:46 10° NNW 20:15:50 68° ENE 20:15:51 68° ENE
Meteor 2-17 Rocket 4.4 20:13:40 10° N 20:19:46 88° W 20:25:04 14° S
Cosmos 2181 Rocket 4.1 20:15:01 10° S 20:21:14 76° W 20:27:35 10° N
H-2A R/B 1.9 20:21:02 55° E 20:21:21 56° ENE 20:26:16 10° N
In-Cosmos 22 4.3 20:16:08 10° NNW 20:21:31 71° W 20:26:39 12° S
Cosmos 1674 4.2 20:21:26 10° N 20:23:12 25° NNE 20:23:12 25° NNE
Cosmos 1190 Rocket 4.4 20:19:54 10° NNW 20:25:07 62° WSW 20:28:12 24° S
Cosmos 1437 Rocket 3.9 20:21:31 10° N 20:23:44 32° N 20:23:44 32° N
Cosmos 2341 Rocket 4.4 20:21:27 10° NNW 20:27:34 61° W 20:33:38 10° S
Cosmos 2237 Rocket 3.0 20:29:58 10° NNW 20:35:28 49° WSW 20:38:53 22° S
Resurs 01 Rocket 3.2 20:40:24 24° NNE 20:40:24 24° NNE 20:42:24 10° N
Cosmos 864 Rocket 4.4 20:33:53 10° N 20:40:10 87° E 20:42:16 45° S
Cosmos 2366 rocket 3.9 20:33:51 10° N 20:40:14 89° W 20:42:45 40° S
Cosmos 1805 4.4 20:42:08 38° NNW 20:42:08 38° NNW 20:44:49 10° N
Cosmos 2218 Rocket 4.0 20:34:48 10° N 20:41:11 82° W 20:44:05 34° S
ADEOS Rocket 3.5 20:35:01 10° NNE 20:42:37 90° E 20:50:26 10° SSW
Meteor 1-24 Rocket 3.7 20:38:54 10° N 20:44:48 83° E 20:45:28 71° SSE
SL-8 Rocket 4.4 20:42:21 10° NNW 20:48:23 59° W 20:52:34 20° SSW
DELTA 2 R/B (1) 3.7 20:49:30 10° W 20:54:57 68° NNW 20:54:57 68° NNW
SL-16 R/B 2.5 21:02:58 10° NNW 21:07:58 65° WNW 21:07:58 65° WNW
GEOS 3 Rocket 4.4 21:11:12 44° WSW 21:11:12 44° WSW 21:15:43 10° NW
ARGOS 4.1 21:20:48 42° W 21:20:48 42° W 21:25:49 10° NNW
Lacrosse 5 4.5 21:36:41 10° WSW 21:37:16 13° WSW 21:37:16 13° WSW
